TimeMDT,TemperatureF,Dew PointF,Humidity,Sea Level PressureIn,VisibilityMPH,Wind Direction,Wind SpeedMPH,Gust SpeedMPH,PrecipitationIn,Events,Conditions,WindDirDegrees,DateUTC
2:44 AM,62,54,68,29.83,2,South,6.7,,,,,170,2013-04-12 08:44:00
5:50 AM,61,53,69,29.83,2,South,6.7,,,,,180,2013-04-12 11:50:00
5:59 AM,51.8,46.4,82,29.88,10.0,South,8.1,-,N/A,,Clear,180,2013-04-12 11:59:00
6:43 AM,50.0,44.6,82,29.83,10.0,South,9.2,-,N/A,,Clear,190,2013-04-12 12:43:00
7:44 AM,71.6,46.4,41,29.85,10.0,South,9.2,-,N/A,,Clear,190,2013-04-12 13:44:00
8:41 AM,62.6,51.8,68,29.92,-9999.0,South,8.1,-,N/A,,Clear,190,2013-04-12 14:41:00
8:50 AM,63,52,57,29.86,12,South,4.5,,,,,180,2013-04-12 14:50:00
9:50 AM,66.2,50.0,56,29.87,10.0,SSW,9.2,-,N/A,,Clear,200,2013-04-12 15:50:00
10:46 AM,71.6,42.8,35,29.86,10.0,South,8.1,-,N/A,,Clear,190,2013-04-12 16:46:00
11:41 AM,75.2,32.0,21,29.90,10.0,South,4.6,-,N/A,,Clear,170,2013-04-12 17:41:00
11:50 AM,81,43,17,29.86,19,South,4.5,,,,,180,2013-04-12 17:50:00
12:47 PM,80.6,32.0,17,29.85,12.0,SW,10.4,-,N/A,,Clear,220,2013-04-12 18:47:00
1:51 PM,82.4,33.8,17,29.82,12.0,South,11.5,-,N/A,,Clear,190,2013-04-12 19:51:00
2:41 PM,82.4,30.2,15,29.86,12.0,SSW,12.7,-,N/A,,Clear,210,2013-04-12 20:41:00
2:45 PM,88,49,17,29.78,19,South,4.5,,,,,180,2013-04-12 20:45:00
4:51 PM,82.4,33.8,17,29.79,10.0,West,9.2,-,N/A,,Clear,280,2013-04-12 22:51:00
5:44 PM,80.6,35.6,20,29.91,10.0,SSW,9.2,-,N/A,,Clear,200,2013-04-12 23:44:00
5:50 PM,84,45,16,29.77,19,South,8.9,,,,,190,2013-04-12 23:50:00
6:51 PM,75.2,41.0,29,29.80,10.0,SW,13.8,-,N/A,,Clear,220,2013-04-13 00:51:00
7:44 PM,69.8,44.6,40,29.82,10.0,WSW,9.2,-,N/A,,Clear,240,2013-04-13 01:44:00
8:42 PM,66.2,50.0,56,29.96,10.0,South,9.2,-,N/A,,Clear,170,2013-04-13 02:42:00
8:50 PM,69,58,58,29.83,2,South,11.2,,,,,170,2013-04-13 02:50:00
9:53 PM,64.4,50.0,59,29.86,10.0,SSE,11.5,-,N/A,,Clear,160,2013-04-13 03:53:00
10:40 PM,62.6,48.2,59,29.89,10.0,SSW,9.2,-,N/A,,Clear,200,2013-04-13 04:40:00
11:50 PM,63,56,72,29.89,2,South,11.2,,,,,180,2013-04-13 05:50:00